Regional Weather Roundup
Issued by NWS

Home | Current Version | Previous Version | Graphics & Text | Print | Product List | Glossary Off
Versions: 1 2 3 4 5 6 7 8 9 10 11 12 13 14 15 16 17 18 19 20 21 22 23 24 25 26 27 28 29 30 31 32 33 34 35 36 37 38 39 40 41 42 43 44 45 46 47 48 49 50

000
ASUS43 KMPX 300210
RWRMN
WEATHER ROUNDUP FOR MINNESOTA
NATIONAL WEATHER SERVICE TWIN CITIES/CHANHASSEN MN
900 PM CDT SAT AUG 29 2015


NOTE: "FAIR" INDICATES FEW OR NO CLOUDS BELOW 12,000 FEET WITH NO
SIGNIFICANT WEATHER AND/OR OBSTRUCTIONS TO VISIBILITY. N/A MEANS
CURRENT SKY AND/OR WEATHER CONDITIONS ARE NOT AVAILABLE.

MNZ060>063-068>070-300300-
   Twin Cities Metro

CITY           SKY/WX    TMP DP  RH WIND       PRES   REMARKS
TWIN CITIES    MOCLDY    69  63  81 S6        30.01R
ST PAUL        MOCLDY    67  64  90 SE5       30.02R
CRYSTAL        MOCLDY    69  62  78 S3        30.00S
BLAINE         MOCLDY    70  64  83 CALM      30.01S
LAKEVILLE      MOCLDY    61  61 100 CALM      30.02S
EDEN PRAIRIE   MOCLDY    67  63  87 S5        30.01R
SOUTH ST PAUL  MOCLDY    68  63  83 CALM      30.01S
LAKE ELMO      FAIR      63  63 100 CALM      30.04R
$$
MNZ001>005-007-008-013>017-022>024-027-028-300300-
   Northwest Minnesota

CITY           SKY/WX    TMP DP  RH WIND       PRES   REMARKS
BEMIDJI        CLOUDY    69  63  80 S8        29.93S
HALLOCK        PTCLDY    73  68  83 S9        29.80S
ROSEAU         PTCLDY    72  64  78 S8        29.84S
WARROAD        PTCLDY    70  64  83 S6        29.86R
THIEF RVR FALL PTCLDY   N/A N/A N/A S8        29.86R
CROOKSTON      FAIR      75  70  83 S13       29.86R
FOSSTON        MOCLDY    70  63  78 S9        29.91R
DETROIT LAKES  PTCLDY    70  63  78 S10       29.94R
MOORHEAD       PTCLDY    72  66  83 S10       29.90R
PARK RAPIDS    PTCLDY    68  61  78 S8        29.96R
MAHNOMEN       FAIR      70  64  83 S6        29.90S
$$
MNZ006-009>011-018-025>026-300300-
   North Central Minnesota

CITY           SKY/WX    TMP DP  RH WIND       PRES   REMARKS
BAUDETTE       CLOUDY    69  65  86 S8        29.88R
FLAG ISLAND    PTCLDY    70  66  88 S13       29.84S
INTL FALLS     PTCLDY    66  64  93 SE6       29.92R
WASKISH        CLOUDY    70  66  88 S5        29.91R
BIG FORK       MOCLDY    66  63  88 S6        29.94S
LONGVILLE      PTCLDY    66  63  88 S8        29.95S
GRAND RAPIDS     N/A     66  61  82 S9        29.97R
CRANE LAKE     PTCLDY    63  61  94 S1        29.96S
COOK           PTCLDY    66  63  88 CALM      29.97R
WALKER         FAIR      68  62  81 S8        29.95R
$$
MNZ012-019>021-037-300300-
   Northeast Minnesota

CITY           SKY/WX    TMP DP  RH WIND       PRES   REMARKS
DULUTH         PTCLDY    67  61  81 SW6       30.00R
ELY            CLEAR     64  61  88 CALM      29.98R
HIBBING        PTCLDY    67  62  84 S5        29.98R
EVELETH        PTCLDY    63  63 100 S5        29.99S
DULUTH HARBOR  PTCLDY    70  64  83 SW5       29.99R
TWO HARBORS    PTCLDY    70  64  83 W5        29.97R
SILVER BAY     PTCLDY    66  63  88 CALM      29.97R
GRAND MARAIS     N/A     56  53  90 CALM      29.96R
G MARAIS ARPRT MOCLDY    61  57  88 CALM      30.01S
$$
MNZ029>031-032-039>041-046>048-054>057-064-300300-
   West Central Minnesota

CITY           SKY/WX    TMP DP  RH WIND       PRES   REMARKS
FERGUS FALLS   PTCLDY    68  63  83 S10       29.93R
WHEATON        CLEAR     64  63  94 SE9       29.94R
MORRIS         CLEAR     66  64  94 SE8       29.95S
ALEXANDRIA     CLEAR     66  63  90 S9        29.99R
ELBOW LAKE     FAIR      66  64  93 SE10      29.95R
WADENA         CLEAR     64  61  88 S8        29.95S
GLENWOOD       CLEAR     64  63  94 SE7       29.99R
APPLETON       CLEAR     70  64  83 SE7       29.95S
BENSON         CLEAR     66  63  88 S6        29.97R
ORTONVILLE     CLEAR     68  63  83 SE6       29.95R
MADISON        CLEAR     68  63  83 S9        29.96R
WILLMAR        FAIR      66  64  94 SE6       30.00S
$$
MNZ033>034-036-042>043-049>051-058-059-300300-
   Central Minnesota

CITY           SKY/WX    TMP DP  RH WIND       PRES   REMARKS
ST CLOUD       PTCLDY    62  61  96 S5        30.00S
SAUK CENTRE    FAIR      64  62  94 SE5       29.99S
PAYNESVILLE    PTCLDY    66  63  89 E6        30.00S
AITKIN         PTCLDY    66  61  82 S6        29.97S
PINE RIVER     PTCLDY    64  61  88 S5        30.00R
BRAINERD       PTCLDY    65  61  87 S8        29.98R
STAPLES        CLEAR     64  61  88 S7        29.96S
LONG PRAIRIE   FAIR      63  61  94 SE6       29.99R
LITTLE FALLS   CLEAR     64  61  88 S6        29.99S
LITCHFIELD     PTCLDY    66  64  94 SE5       30.01S
BUFFALO        MOCLDY    64  61  87 CALM      30.02R
MAPLE LAKE     MOCLDY    64  63  94 CALM      30.02S
$$
MNZ037-044-045-052-053-300300-
   East Central Minnesota

CITY           SKY/WX    TMP DP  RH WIND       PRES   REMARKS
PRINCETON      PTCLDY    64  61  88 CALM      30.01R
MORA           CLEAR     64  61  88 CALM      30.02S
CAMBRIDGE      FAIR      68  57  68 CALM      29.99S
RUSH CITY      CLEAR     63  60  90 S5        30.01S
MOOSE LAKE     MOCLDY    64  61  88 S5        29.98S
HINCKLEY       FAIR      64  63  94 S5        30.00S
CLOQUET        PTCLDY    66  61  82 S5        29.99S
MCGREGOR       PTCLDY    64  63  94 S6        29.98S
$$
MNZ071>073-080-081-089-090-097-098-300300-
   Southwest Minnesota

CITY           SKY/WX    TMP DP  RH WIND       PRES   REMARKS
MONTEVIDEO     CLEAR     68  64  88 S8        29.99R
GRANITE FALLS  CLEAR     67  65  91 SE7       29.99R
CANBY          CLEAR     68  63  85 S7        29.98R
MARSHALL       CLEAR     68  61  77 S12       29.99S
REDWOOD FALLS  CLEAR     66  64  93 SE8       29.99S
OLIVIA         CLEAR     63  59  88 SE6       29.99R
PIPESTONE      CLEAR     66  63  88 S7        30.01S
WINDOM         PTCLDY    66  63  88 CALM      30.03R
WORTHINGTON    PTCLDY    64  61  88 S8        30.03R
JACKSON        MOCLDY    64  63  94 S8        30.04R
TRACY          PTCLDY    69  66  89 S7        30.00S
SLAYTON        PTCLDY    64  64 100 CALM      30.03R
$$
MNZ065>067-074>077-082>085-091>093-300300-
   South Central Minnesota

CITY           SKY/WX    TMP DP  RH WIND       PRES   REMARKS
MANKATO        PTCLDY    64  61  88 S3        30.02R
NEW ULM        CLEAR     64  63  94 SE5       30.02R
ST JAMES       CLEAR     64  64 100 SE5       30.03R
FAIRMONT       PTCLDY    63  55  77 S7        30.03S
GLENCOE        PTCLDY    65  64  96 CALM      30.02R
FARIBAULT      FOG       63  63 100 CALM      30.04R VSB 1/2
OWATONNA       CLEAR     63  61  94 CALM      30.04R
WASECA         PTCLDY    63  61  94 CALM      30.04S
ALBERT LEA     PTCLDY    64  64 100 CALM      30.04R
$$
MNZ078>079-086>088-094>096-300300-
   Southeast Minnesota

CITY           SKY/WX    TMP DP  RH WIND       PRES   REMARKS
ROCHESTER      PTCLDY    63  61  93 SE6       30.06R
RED WING       PTCLDY    64  63  94 CALM      30.02R
STANTON        MOCLDY    66  63  89 CALM      30.01R
DODGE CENTER   PTCLDY    64  63  94 SE6       30.05R
WINONA         CLEAR     63  61  94 E3        30.05R
AUSTIN         CLOUDY    68  64  88 SE3       30.04S
PRESTON        CLEAR     64  61  90 CALM      30.07R
$$
ABBREVIATIONS USED IN REMARKS
   TC - TEMPERATURES IN CELSIUS
  WCI - WIND CHILL INDEX
   HX - HEAT INDEX
  VSB - VISIBILITY
$$



USA.gov is the U.S. government's official web portal to all federal, state and local government web resources and services.